[[[{"header":{"parameterUnit":"kt","parameterCategory":2,"dx":1,"dy":1,"la1":30.253999710083008,"la2":30.299108505249023,"lo1":-89.0895004272461,"lo2":-89.04439544677734,"nx":28,"ny":28,"refTime":"2022-09-27T21:00:00:Z","depth":0,"parameterNumber":1,"parameterNumberName":"U-component_of_WINDS"},"data":[-8.1012,-8.1252,-8.1205,-8.1457,-8.1457,-8.1621,-8.1664,-8.1715,-8.1743,-8.1931,-8.203,-8.2006,-8.2014,-8.2121,-8.2226,-8.2212,-8.2263,-8.2381,-8.2347,-8.1857,-8.1786,-8.1719,-8.1661,-8.2391,-8.2392,-8.2864,-8.2868,-8.2872,-8.0656,-8.066,-8.0778,-8.0863,-8.0964,-8.0821,-8.0874,-8.0969,-8.1119,-8.1154,-8.1249,-8.1411,-8.1531,-8.1498,-8.1606,-8.1716,-8.1657,-8.175,-8.1745,-8.1749,-8.1222,-8.1161,-8.1796,-8.1796,-8.1796,-8.1796,-8.1796,-8.1796,-7.9997,-8.0143,-8.0166,-8.0294,-8.0323,-8.0379,-8.0509,-8.0476,-8.059,-8.0699,-8.0617,-8.0785,-8.0811,-8.0917,-8.094,-8.1069,-8.0958,-8.1045,-8.1069,-8.1095,-8.1132,-8.0467,-8.1084,-8.1082,-8.108,-8.1078,-8.1077,0,-7.9502,-7.9454,-7.9564,-7.9662,-7.9751,-7.9822,-7.9878,-7.9956,-7.9834,-7.9934,-8.0074,-8.0147,-8.029,-8.0417,-8.0506,-8.0511,-8.0377,-8.0355,-8.0416,-8.0464,-8.0494,-8.0488,-7.9636,-8.034,-8.0333,-8.0329,-8.0325,-8.0322,-7.8841,-7.9014,-7.9014,-7.9098,-7.9117,-7.9253,-7.9325,-7.9203,-7.9285,-7.9335,-7.9469,-7.9592,-7.9687,-7.9918,-7.9878,-7.9985,-7.9922,-8.0197,-7.9937,-7.9973,-7.9934,-7.9928,-7.9947,-8.0253,-8.0262,-8.0269,-8.0275,0,-7.8473,-7.8394,-7.8647,-7.8629,-7.863,-7.8818,-7.8802,-7.894,-7.8892,-7.9077,-7.9112,-7.9039,-7.9178,-7.9092,-7.9233,-7.9184,-7.9494,-7.9425,-7.9485,-7.9469,-7.9712,-7.9693,-8.0501,-8.0602,-7.9836,-7.9843,-7.9849,0,-7.7881,-7.8113,-7.7982,-7.8133,-7.8385,-7.8257,-7.8511,-7.8494,-7.8514,-7.8658,-7.8487,-7.8626,-7.8493,-7.8619,-7.8547,-7.8783,-7.8808,-7.8787,-7.8768,-7.8808,-7.8812,-7.8856,-7.8824,-7.8706,-7.8702,-7.8698,-7.8695,0,-7.7321,-7.7519,-7.7762,-7.7796,-7.7801,-7.7917,-7.7925,-7.7945,-7.8017,-7.8094,-7.8139,-7.8238,-7.8295,-7.8374,-7.8283,-7.8111,-7.8567,-7.8312,-7.8547,-7.855,-7.866,-7.8656,-7.9384,-7.869,-7.8689,-7.8687,-7.8686,0,-7.6833,-7.6915,-7.7277,-7.7277,-7.7335,-7.7494,-7.7584,-7.77,-7.7734,-7.7699,-7.7759,-7.7637,-7.7832,-7.7586,-7.7855,-7.7658,-7.7723,-7.7718,-7.7733,-7.7753,-7.7483,-7.7915,-7.8611,-7.8684,-7.7761,-7.7753,-7.7746,0,-7.6217,-7.6561,-7.6454,-7.6801,-7.6949,-7.6749,-7.6922,-7.6957,-7.6925,-7.7045,-7.7006,-7.7145,-7.6942,-7.6974,-7.7117,-7.7086,-7.7342,-7.7048,-7.7229,-7.7237,-7.7233,-7.7871,-7.8001,-7.8466,-7.7646,-7.7657,-7.7664,0,-7.573,-7.5733,-7.5803,-7.5836,-7.5862,-7.5984,-7.6183,-7.6291,-7.6377,-7.6433,-7.66,-7.6787,-7.6644,-7.6698,-7.661,-7.6764,-7.7165,-7.659,-7.6589,-7.6702,-7.7586,-7.7709,-7.7788,-7.7071,-7.7083,-7.7093,-7.7585,0,-7.5023,-7.5183,-7.5364,-7.5443,-7.5522,-7.5733,-7.5642,-7.5737,-7.5643,-7.5605,-7.5844,-7.5851,-7.5963,-7.6025,-7.5936,-7.6315,-7.624,-7.6086,-7.5846,-7.6262,-7.6423,-7.6488,-7.5614,-7.5606,-7.56,-7.5594,0,0,-7.4456,-7.4684,-7.4561,-7.475,-7.4811,-7.4602,-7.4836,-7.4869,-7.4945,-7.4992,-7.4855,-7.5125,-7.5138,-7.5439,-7.5561,-7.5604,-7.5666,-7.5524,-7.6063,-7.6116,-7.6164,-7.6338,-7.6406,-7.5583,-7.5581,-7.5578,-7.5576,0,-7.4181,-7.4195,-7.4427,-7.4456,-7.4495,-7.4442,-7.4498,-7.45,-7.4487,-7.4719,-7.4546,-7.4678,-7.4898,-7.4935,-7.4983,-7.5483,-7.5348,-7.5522,-7.5825,-7.6001,-7.6063,-7.6116,-7.63,-7.6366,-7.5561,-7.5562,-7.5562,0,-7.369,-7.3691,-7.3793,-7.3918,-7.3942,-7.4098,-7.3821,-7.3997,-7.4112,-7.3877,-7.4112,-7.4104,-7.4145,-7.444,-7.4569,-7.445,-7.5065,-7.4852,-7.4891,-7.4905,-7.5072,-7.5146,-7.5212,-7.4349,-7.4346,-7.4342,0,0,-7.3465,-7.3612,-7.3577,-7.3852,-7.3879,-7.3804,-7.3877,-7.3792,-7.3833,-7.385,-7.3838,-7.3884,-7.4009,-7.4096,-7.4209,-7.4544,-7.4545,-7.4707,-7.4764,-7.4811,-7.4852,-7.5032,-7.5104,-7.4328,-7.4327,-7.4327,0,0,-7.3358,-7.3328,-7.3227,-7.3534,-7.3578,-7.3562,-7.3735,-7.3611,-7.3703,-7.367,-7.3536,-7.3542,-7.3815,-7.3815,-7.3631,-7.4123,-7.3886,-7.3928,-7.4115,-7.4185,-7.4242,-7.4239,-7.3353,0,0,0,0,0,-7.3031,-7.333,-7.3239,-7.3277,-7.3435,-7.3612,-7.3632,-7.3528,-7.3363,-7.3501,-7.3471,-7.332,-7.3688,-7.3522,-7.3563,-7.3771,-7.4141,-7.4174,-7.4205,-7.4524,-7.4599,-7.4662,0,0,0,0,0,0,-7.3045,-7.3092,-7.3231,-7.323,-7.3264,-7.3601,-7.3298,-7.3278,-7.3345,-7.3313,-7.333,-7.332,-7.3236,-7.3495,-7.3533,-7.3733,-7.334,-7.4154,-7.4182,-7.4207,-7.4549,-7.4611,-7.4664,0,0,0,0,0,-7.3056,-7.3093,-7.3374,-7.3224,-7.3254,-7.3187,-7.3286,-7.3267,-7.3317,-7.3272,-7.3257,-7.3233,-7.3244,-7.3269,-7.3516,-7.3719,-7.3313,-7.3328,-7.4172,-7.4194,-7.4214,-7.458,0,0,0,0,0,0,-7.3064,-7.3077,-7.3377,-7.3383,-7.3104,-7.3166,-7.3172,-7.3258,-7.3269,-7.3258,-7.3167,-7.3141,-7.3254,-7.3271,-7.3291,-7.372,-7.3291,-7.3306,-7.3315,-7.4189,-7.4206,-7.4222,0,0,0,0,0,0,-7.3056,-7.3083,-7.338,-7.3234,-7.3221,-7.3148,-7.3153,-7.3348,-7.3272,-7.3163,-7.3141,-7.3155,-7.3224,-7.3275,-7.3289,-7.3597,-7.3275,-7.3289,-7.3298,-7.3305,-7.4203,-7.4217,0,0,0,0,0,0,-7.3066,-7.3089,-7.3231,-7.3222,-7.321,-7.3261,-7.3318,-7.3486,-7.3146,-7.3165,-7.3113,-7.3097,-7.3232,-7.3244,-7.3289,-7.3592,-7.3596,-7.3275,-7.3285,-7.3291,-7.3296,0,0,0,0,0,0,0,-7.3073,-7.2943,-7.3347,-7.3213,-7.3201,-7.3431,-7.3432,-7.3434,-7.3143,-7.313,-7.3116,-7.3104,-7.3194,-7.3209,-7.3225,-7.3588,0,0,-7.3274,-7.328,0,0,0,0,0,0,0,0,-7.2931,-7.294,-7.3347,-7.3348,-7.3349,-7.3431,-7.3432,-7.3433,-7.3141,-7.313,-7.3119,-7.3109,-7.3198,-7.3211,-7.3223,0,0,0,0,0,0,0,0,0,0,0,0,0,0,0,-7.3347,-7.3348,0,-7.3431,-7.3432,-7.3433,-7.3139,-7.313,-7.3121,-7.3113,-7.3202,-7.3212,-7.3222,0,0,0,0,0,0,0,0,0,0,0,0,0,0,0,0,0,0,0,0,0,0,0,0,0,0,0,0,0,0,0,0,0,0,0,0,0,0,0,0,0,0,0,0,0,0,0,0,0,0,0,0,0,0,0,0,0,0,0,0,0,0,0,0,0,0,0,0,0]}],[{"header":{"parameterUnit":"kt","parameterCategory":2,"dx":1,"dy":1,"la1":30.253999710083008,"la2":30.299108505249023,"lo1":-89.0895004272461,"lo2":-89.04439544677734,"nx":28,"ny":28,"refTime":"2022-09-27T21:00:00:Z","depth":0,"parameterNumber":2,"parameterNumberName":"V-component_of_WINDS"},"data":[-13.9849,-14.0086,-14.0056,-14.0309,-14.0324,-14.0491,-14.054,-14.0599,-14.0637,-14.0828,-14.0931,-14.092,-14.0942,-14.1054,-14.1161,-14.1153,-14.1201,-14.1308,-14.1279,-14.0834,-14.077,-14.0709,-14.0653,-14.1319,-14.1319,-14.1745,-14.1749,-14.1752,-13.9524,-13.9543,-13.9669,-13.9769,-13.9876,-13.9754,-13.9822,-13.9918,-14.0069,-14.0117,-14.0217,-14.0382,-14.0506,-14.049,-14.0602,-14.0707,-14.0655,-14.074,-14.0732,-14.0737,-14.026,-14.02,-14.078,-14.078,-14.078,-14.078,-14.078,-14.078,-13.8924,-13.9067,-13.911,-13.9246,-13.9287,-13.9354,-13.9483,-13.9468,-13.9587,-13.9705,-13.964,-13.9809,-13.9847,-13.9965,-13.9995,-14.0122,-14.0021,-14.0103,-14.0123,-14.0146,-14.0176,-13.9566,-14.0139,-14.0137,-14.0136,-14.0134,-14.0133,0,-13.8474,-13.8439,-13.8558,-13.8668,-13.8764,-13.8845,-13.8913,-13.8991,-13.8899,-13.9002,-13.9146,-13.9223,-13.9373,-13.9502,-13.9599,-13.9612,-13.9493,-13.9476,-13.9533,-13.9568,-13.9587,-13.958,-13.8804,-13.946,-13.9454,-13.945,-13.9447,-13.9444,-13.7866,-13.8038,-13.8067,-13.8154,-13.8183,-13.8325,-13.8402,-13.8308,-13.8394,-13.846,-13.8589,-13.8718,-13.8817,-13.905,-13.9024,-13.9135,-13.9078,-13.9333,-13.9094,-13.912,-13.9082,-13.9074,-13.909,-13.9381,-13.939,-13.9396,-13.9401,0,-13.7527,-13.7475,-13.7728,-13.7739,-13.7746,-13.7929,-13.7935,-13.8072,-13.804,-13.8224,-13.8261,-13.8211,-13.8352,-13.8285,-13.8432,-13.8393,-13.8687,-13.8628,-13.8672,-13.8657,-13.8879,-13.8859,-13.9608,-13.9701,-13.9009,-13.9015,-13.9021,0,-13.6988,-13.7215,-13.7123,-13.7273,-13.7521,-13.7421,-13.7668,-13.7666,-13.7699,-13.7842,-13.7697,-13.7834,-13.7727,-13.7853,-13.7795,-13.8023,-13.805,-13.8033,-13.8016,-13.8048,-13.805,-13.809,-13.8059,-13.7968,-13.7964,-13.796,-13.7957,0,-13.6463,-13.6679,-13.6923,-13.6963,-13.6996,-13.7112,-13.713,-13.7166,-13.7242,-13.7328,-13.7375,-13.7482,-13.7542,-13.7625,-13.755,-13.7391,-13.7827,-13.7592,-13.781,-13.7812,-13.7911,-13.7906,-13.8585,-13.7953,-13.7952,-13.795,-13.7949,0,-13.6019,-13.6114,-13.6475,-13.6498,-13.6558,-13.6718,-13.6818,-13.6939,-13.6987,-13.6961,-13.7028,-13.6923,-13.7117,-13.6888,-13.7153,-13.6967,-13.7033,-13.7033,-13.7048,-13.7062,-13.6809,-13.7202,-13.7855,-13.7921,-13.7073,-13.7066,-13.7059,0,-13.5433,-13.5783,-13.5701,-13.6045,-13.6197,-13.6024,-13.6198,-13.6246,-13.6227,-13.6349,-13.6325,-13.6466,-13.6282,-13.6316,-13.6456,-13.6437,-13.6679,-13.6401,-13.6577,-13.6585,-13.6571,-13.7171,-13.7286,-13.7719,-13.6965,-13.6975,-13.6982,0,-13.4972,-13.5012,-13.508,-13.5121,-13.5171,-13.5297,-13.5497,-13.5616,-13.5703,-13.5772,-13.5936,-13.6131,-13.6,-13.6059,-13.5984,-13.6134,-13.6511,-13.5972,-13.5971,-13.6072,-13.6912,-13.7019,-13.7093,-13.6427,-13.6439,-13.6448,-13.6907,0,-13.4314,-13.4482,-13.4662,-13.476,-13.4847,-13.5059,-13.499,-13.509,-13.501,-13.4984,-13.5223,-13.5244,-13.5363,-13.5427,-13.535,-13.5714,-13.5642,-13.5501,-13.5274,-13.5668,-13.5818,-13.5879,-13.5057,-13.505,-13.5044,-13.5039,0,0,-13.3766,-13.4005,-13.3909,-13.4102,-13.4169,-13.3987,-13.4219,-13.4262,-13.4356,-13.4405,-13.4278,-13.4559,-13.4581,-13.4879,-13.4996,-13.5044,-13.5102,-13.4968,-13.5481,-13.5531,-13.5577,-13.5738,-13.5803,-13.5028,-13.5026,-13.5024,-13.5022,0,-13.3512,-13.3544,-13.3776,-13.3818,-13.3876,-13.3838,-13.3894,-13.3918,-13.3912,-13.4147,-13.3992,-13.4126,-13.4354,-13.4398,-13.445,-13.493,-13.4804,-13.4971,-13.5253,-13.5423,-13.5481,-13.5532,-13.5702,-13.5765,-13.5008,-13.5008,-13.5009,0,-13.3045,-13.3065,-13.3171,-13.3317,-13.3353,-13.3514,-13.326,-13.3441,-13.3558,-13.3346,-13.3583,-13.3585,-13.3637,-13.3928,-13.4056,-13.3944,-13.4537,-13.4337,-13.4373,-13.4386,-13.4546,-13.4616,-13.4678,-13.3864,-13.3861,-13.3857,0,0,-13.2835,-13.2991,-13.2982,-13.3258,-13.3291,-13.3238,-13.3316,-13.3245,-13.3298,-13.332,-13.332,-13.3375,-13.3505,-13.3594,-13.3712,-13.4042,-13.4044,-13.4199,-13.4253,-13.4298,-13.4335,-13.4507,-13.4576,-13.3843,-13.3843,-13.3843,0,0,-13.2733,-13.2735,-13.2646,-13.2958,-13.3015,-13.3023,-13.3192,-13.3082,-13.3183,-13.315,-13.3036,-13.3045,-13.3316,-13.3324,-13.3146,-13.363,-13.3407,-13.3448,-13.3615,-13.3682,-13.3735,-13.3728,-13.2887,0,0,0,0,0,-13.2439,-13.2734,-13.2654,-13.2696,-13.288,-13.3068,-13.309,-13.3004,-13.2848,-13.2984,-13.2966,-13.2826,-13.3204,-13.3044,-13.3086,-13.3285,-13.3664,-13.3696,-13.3726,-13.4019,-13.409,-13.415,0,0,0,0,0,0,-13.2455,-13.2507,-13.2645,-13.2668,-13.2708,-13.3056,-13.2773,-13.2757,-13.2831,-13.2801,-13.2834,-13.2827,-13.2755,-13.3016,-13.3055,-13.3247,-13.2873,-13.3677,-13.3704,-13.3728,-13.4043,-13.4101,-13.4151,0,0,0,0,0,-13.2467,-13.2509,-13.2827,-13.2662,-13.2698,-13.2654,-13.2761,-13.2746,-13.2801,-13.2775,-13.2763,-13.273,-13.2763,-13.279,-13.3039,-13.3231,-13.2846,-13.2861,-13.3694,-13.3715,-13.3734,-13.4072,0,0,0,0,0,0,-13.2476,-13.2495,-13.2832,-13.284,-13.2545,-13.2632,-13.2643,-13.2737,-13.2767,-13.276,-13.2662,-13.2639,-13.2773,-13.2791,-13.2813,-13.3231,-13.2823,-13.2838,-13.2848,-13.371,-13.3727,-13.3742,0,0,0,0,0,0,-13.2472,-13.2503,-13.2836,-13.2693,-13.2683,-13.2613,-13.2623,-13.2821,-13.277,-13.2653,-13.2634,-13.2652,-13.2739,-13.2794,-13.281,-13.3123,-13.2806,-13.282,-13.283,-13.2837,-13.3724,-13.3737,0,0,0,0,0,0,-13.2483,-13.251,-13.269,-13.2683,-13.2673,-13.2748,-13.2785,-13.2978,-13.2651,-13.2654,-13.2618,-13.2604,-13.2746,-13.276,-13.2809,-13.3116,-13.3121,-13.2806,-13.2816,-13.2823,-13.2828,0,0,0,0,0,0,0,-13.2492,-13.2337,-13.279,-13.2675,-13.2665,-13.2907,-13.2909,-13.2911,-13.2647,-13.2635,-13.2622,-13.261,-13.2723,-13.2739,-13.2755,-13.3111,0,0,-13.2805,-13.2812,0,0,0,0,0,0,0,0,-13.2324,-13.2334,-13.279,-13.2791,-13.2793,-13.2907,-13.2909,-13.2911,-13.2645,-13.2635,-13.2624,-13.2615,-13.2727,-13.274,-13.2753,0,0,0,0,0,0,0,0,0,0,0,0,0,0,0,-13.279,-13.2791,0,-13.2908,-13.2909,-13.291,-13.2644,-13.2635,-13.2627,-13.2619,-13.2731,-13.2741,-13.2752,0,0,0,0,0,0,0,0,0,0,0,0,0,0,0,0,0,0,0,0,0,0,0,0,0,0,0,0,0,0,0,0,0,0,0,0,0,0,0,0,0,0,0,0,0,0,0,0,0,0,0,0,0,0,0,0,0,0,0,0,0,0,0,0,0,0,0,0,0]}]]]